Back to catalog

SL-8 DEB

AliveLEO
NORAD 21408·DEBRIS·🇷🇺 Russia

Launched Feb 12, 1991 from Plesetsk Cosmodrome

Loading…

Next Passes (next 24 hours)

TLE

FreshSource: Space-Track

Epoch: Sep 14, 2026, 06:36 UTC

1 21408U 91009BX  26257.27528291  .00000019  00000-0  32569-3 0  9990
2 21408  74.0267 197.4439 0201228 329.5049 183.0650 12.15997501576266

Track SL-8 DEB in real time with AllMySat

Download on the App Store